CZ-3C DEB, 40856

Orbit data source: Space-Track

CZ-3C DEB, 40856 is space debris in HEO originally from a launch on Fri, 24 Feb 2012 UTC launched from the Xichang Space Center, China (XSC). Debris objects in space refer to the collection of defunct objects orbiting the Earth. Examples of debris include non-operational satellites, rocket bodies, and fragments generated from explosions, collisions, or faulty payload assembly.

Loading next visibility...
Identifier
40856, 2012-008W
Orbit
HEO
Country
Flag of CNCN / PRC
Related business
Manufacturer
CALT
Mission
Spacecraft
Bus & Motor
Unknown
Mass
Unknown
Launch date (UTC)
2012-02-24 (14 years ago)
Launch vehicle
Unknown
Launch site
Xichang Space Center, China (XSC)
Object type
Payload
Rocket body
Debris
Shape & HBR
Unknown shape, 0.1 m
Radar Cross Section
Medium (>0.1 m² and <1 m²)

Expand to show TLE details & history
Last TLE update: 3 days ago

TLE from 3 days ago
0 CZ-3C DEB
1 40856U 12008W   26170.45454987 -.00000117  00000-0  48765-3 0  9999
2 40856  21.7434 277.2928 7059283 351.0055   1.0933  2.35361106 99254
Epoch: 2026-06-19T10:54Z
TLE epoch observation values (Epoch: 2026-06-19T10:54:33.108Z)
Latitude
-0.0011°
Longitude
-154.03338°
Altitude
657.006 km
Speed
9.829 km/s
True Right ascension
18h 29m 09s
True Declination
0° 00' 04"
Sunlit
Object was in full shadow at epoch
Visualization orbit readout
Latitude
Unknown
Longitude
Unknown
Altitude
Unknown
Speed
Unknown
Apparent Right ascension
Unknown
Apparent Declination
Unknown
Sunlit
N/A
Visualization observer readout
Local Sidereal Time
00:51:33
Azimuth
Unknown
Elevation
Unknown
Doppler factor
Unknown
Orbital elements
Apogee altitude
34,355.022 km
Perigee altitude
643.535 km
Semi-major axis
23,877.416 km
Eccentricity
0.70593
Inclination
21.7434°
RAAN
277.2928°
Arg. of periapsis
351.0055°
True anomaly
8.9245°
Mean anomaly
1.0933°
Eccentric anomaly
3.71157°
Mean motion
0.58825 °/min
Orbital period
611.98 mins
BSTAR
0.00048765
Loading maneuver chart data...
Computing Atmospheric mass density...
Loading historical data...
Loading historical data...
Loading historical data...
Loading historical data...
Loading historical data...
Loading historical data...
Loading historical data...

Documentation

Showing up to 5 results
|